Lid_Strength_Index
3 3 3 3 4 5 7 9 10 4 4 11 12 13 9 6 7 6 8 8 9 11 10 12 12 12 10 7 8 11 10 13 16 13 9 9 10 11 13 17 18 16 16 16
3 3 3 3 3 4 7 9 9 4 5 12 14 10 8 7 8 8 8 9 8 8 11 13 11 11 7 7 8 10 10 14 17 15 12 10 11 11 11 12 14 17 18 16
4 3 3 3 4 4 7 10 12 9 9 10 12 11 10 10 7 8 7 8 8 10 11 10 12 11 8 7 8 7 8 12 15 17 14 12 14 12 11 13 17 16 16 14
4 4 3 2 3 4 8 11 13 10 14 12 11 10 9 11 11 8 7 9 9 10 13 12 12 10 9 8 7 8 10 15 13 12 12 11 12 12 12 13 13 16 13 13
4 4 3 3 3 3 8 13 12 9 10 10 11 10 10 11 10 9 10 11 9 9 12 12 13 11 11 11 9 10 10 14 13 14 12 12 13 11 11 12 11 12 12 13
4 4 4 3 2 4 10 10 8 8 9 11 11 11 9 10 8 8 7 8 9 10 9 8 7 7 8 8 10 11 12 13 14 17 13 13 16 13 12 11 10 11 14 11
4 4 4 4 3 3 8 10 8 9 11 10 10 9 8 9 8 10 8 7 9 7 5 6 7 8 8 8 8 8 12 13 13 17 15 20 13 10 10 12 10 10 11 10
4 4 4 4 3 3 7 9 8 9 11 9 9 9 9 8 7 9 8 7 6 6 8 11 12 12 12 11 9 9 9 11 15 18 18 15 13 11 12 13 13 10 11 9
4 4 4 4 3 2 5 8 9 9 10 10 8 10 9 10 10 9 8 6 5 7 10 12 16 17 14 15 13 8 9 10 14 16 19 21 14 11 8 9 16 9 9 9
5 4 4 4 4 2 4 7 8 8 10 7 7 9 9 7 8 10 8 8 8 8 13 15 15 15 11 16 16 15 14 14 16 16 17 15 11 10 8 16 15 9 8 9
5 5 4 4 4 3 3 6 6 8 10 8 6 6 8 7 9 10 8 9 11 11 12 13 13 14 13 14 12 14 15 16 16 15 17 19 10 10 13 10 9 8 8 7
5 5 5 4 4 3 3 6 6 5 9 8 5 4 4 4 5 7 6 9 9 10 11 11 11 13 12 13 16 10 15 12 14 14 14 11 9 9 8 7 9 8 8 7
6 6 5 5 4 3 3 5 5 6 10 10 8 7 4 3 3 3 8 10 9 9 7 11 10 13 11 14 14 12 10 8 12 12 10 9 9 8 7 7 8 8 8 7
6 6 5 5 4 4 4 5 5 7 7 11 10 4 5 2 3 3 5 7 7 7 6 9 10 12 8 12 11 12 11 9 11 11 9 9 8 8 8 8 8 8 7 7
6 5 5 4 4 4 4 5 4 5 7 11 10 6 5 4 4 4 5 7 7 7 9 9 10 8 9 9 10 11 9 10 12 13 9 10 9 8 8 8 8 8 8 7
6 6 5 5 4 4 6 8 5 4 5 8 12 8 6 5 4 4 5 6 6 7 7 8 8 6 9 12 13 9 8 7 6 8 6 7 7 7 7 7 7 7 7 6
6 6 5 5 5 5 9 9 5 3 3 7 11 12 7 5 5 5 6 5 6 6 7 9 9 8 9 11 13 9 7 6 6 5 6 7 7 8 7 6 6 6 6 6
6 6 5 5 5 5 7 6 4 3 4 6 11 12 10 6 8 8 5 7 6 7 8 8 9 9 9 12 9 8 7 7 6 6 5 5 5 4 5 6 6 6 7 6
5 5 5 6 7 7 5 2 2 3 4 8 9 15 15 5 7 6 8 8 11 6 9 9 8 11 14 10 8 8 7 8 7 5 5 5 5 5 5 6 7 7 7 6
5 6 7 7 6 2 3 5 6 6 5 6 9 9 12 8 8 9 10 9 10 12 10 7 10 12 8 7 6 6 6 6 6 8 7 6 7 6 6 7 6 6 6 6
8 10 9 7 4 5 6 8 9 9 9 8 9 9 11 7 10 10 9 11 10 14 11 11 12 12 8 7 6 5 5 5 5 5 5 6 6 7 7 7 6 6 6 7
8 8 6 7 8 8 9 10 8 9 11 9 10 9 8 7 7 11 10 12 10 14 9 11 14 10 7 6 5 5 5 5 5 5 5 4 4 5 7 7 7 7 7 7
6 7 8 9 9 12 11 14 11 11 8 7 8 9 7 8 7 10 12 14 14 9 14 14 11 8 7 6 5 5 4 5 4 4 4 4 4 5 7 7 7 6 7 7
8 9 12 11 13 11 11 10 10 7 6 6 8 8 8 8 9 9 13 11 10 14 17 15 10 8 6 5 5 5 5 5 5 4 4 5 5 5 6 7 7 7 7 7
9 9 12 11 9 8 7 7 7 6 5 6 8 8 8 10 10 9 11 13 15 16 16 12 8 6 5 6 5 6 4 5 5 4 4 5 5 5 6 7 7 7 8 8
8 8 10 9 9 8 8 8 7 5 6 5 7 10 10 11 11 12 13 14 15 15 12 8 7 6 5 6 6 5 4 5 5 4 4 4 5 5 6 6 7 7 8 8
8 9 8 8 8 8 7 7 7 5 7 9 9 11 11 9 13 13 12 13 12 10 8 7 6 6 5 5 5 4 4 5 4 4 4 4 5 6 6 7 8 7 8 8